Regional Weather Roundup
Issued by NWS

Home | Current Version | Previous Version | Graphics & Text | Print | Product List | Glossary On
Versions: 1 2 3 4 5 6 7 8 9 10 11 12 13 14 15 16 17 18 19 20 21 22 23 24 25 26 27 28 29 30 31 32 33 34 35 36 37 38 39 40 41 42 43 44 45 46 47 48 49 50
175
ASUS43 KDTX 231610
RWRMI
MICHIGAN HOURLY REGIONAL WEATHER ROUNDUP
NATIONAL WEATHER SERVICE DETROIT/PONTIAC MI
ISSUED BY NATIONAL WEATHER SERVICE GRAND RAPIDS MI
1200 PM EDT FRI JUN 23 2017

NOTE: "FAIR" INDICATES FEW OR NO CLOUDS BELOW 12,000 FEET WITH NO
SIGNIFICANT WEATHER AND/OR OBSTRUCTION TO VISIBILITY.

MIZ047>049-052>055-059>063-066>070-074>076-081>083-231700-
SOUTHEAST LOWER MICHIGAN

CITY           SKY/WX    TMP DP  RH WIND       PRES   REMARKS
ADRIAN         PTSUNNY   76  71  85 W10       29.60R
ALMA           CLOUDY    71  67  89 W12G17    29.62R
ANN ARBOR      CLOUDY    74  70  87 NW7       29.58F
BAD AXE        CLOUDY    70  67  91 W5        29.58F
DETROIT CITY   CLOUDY    72  69  90 E12       29.55F
DETROIT        CLOUDY    74  68  81 VRB5      29.54F
FLINT          CLOUDY    72  67  84 W5        29.58F
GROSSE ILE     CLOUDY    74  71  90 CALM      29.53F
HILLSDALE      PTSUNNY   77  68  73 W8        29.61R
HOWELL         PTSUNNY   72  65  79 CALM      29.58R

CITY           SKY/WX    TMP DP  RH WIND       PRES   REMARKS
JACKSON        PTSUNNY   77  67  71 NW10      29.60R
LANSING        CLOUDY    74  66  76 NW14      29.61F
MASON          CLOUDY    73  68  84 W6        29.60S
MONROE         CLOUDY    76  73  89 SE6       29.52F
MT. CLEMENS    PTSUNNY   69  69 100 E10       29.54F
PONTIAC        CLOUDY    73  68  84 NE3       29.57F
PORT HOPE        N/A     70  66  87 VRB3      29.56F
PORT HURON     CLOUDY    68  66  94 S6        29.58S
TRI CITIES     CLOUDY    69  68  96 W12       29.60S
YPSILANTI      CLOUDY    75  69  81 CALM      29.56F
$$
MIZ043>046-050>051-056>058-064>065-071>073-077>080-231700-
SOUTHWEST LOWER MICHIGAN

CITY           SKY/WX    TMP DP  RH WIND       PRES   REMARKS
BATTLE CREEK   CLOUDY    73  67  81 NW10      29.63F
BENTON HARBOR  CLOUDY    69  61  75 NW7       29.67S
BIG RAPIDS     CLOUDY    70  62  75 W8        29.64R
COLDWATER      CLOUDY    75  68  79 W12       29.63R
HOLLAND        CLOUDY    71  64  78 NW13      29.66F
GRAND RAPIDS   CLOUDY    71  66  84 NW13      29.63S
KALAMAZOO      CLOUDY    71  65  81 W9        29.64F
MARSHALL       CLOUDY    76  67  72 W8        29.61S
MOUNT PLEASANT CLOUDY    71  66  84 W7        29.60F
MUSKEGON       CLOUDY    67  64  90 NW12      29.67R
STURGIS        CLOUDY    71  66  83 NW9       29.64S
$$
MIZ016>042-231700-
NORTHERN LOWER MICHIGAN

CITY           SKY/WX    TMP DP  RH WIND       PRES   REMARKS
ALPENA         CLOUDY    70  66  87 NW8       29.58S
BEAVER ISLAND  MOSUNNY   69  61  74 SW6       29.61S
BELLAIRE       CLOUDY    66  61  86 NW7       29.64R
CADILLAC       CLOUDY    72  58  60 NW12G17   29.64R
CHARLEVOIX     CLOUDY    65  65 100 W7        29.65S FOG
GAYLORD        MOSUNNY   71  57  61 N5        29.61S
HOUGHTON LAKE  CLOUDY    71  61  70 W10       29.62R
MANISTEE       PTSUNNY   70  61  73 W9        29.65R
OSCODA         CLOUDY    69  67  92 W6        29.57S FOG
PELLSTON       SUNNY     72  61  68 NW8       29.60R
TRAVERSE CITY  PTSUNNY   72  63  73 N10       29.61R
LUDINGTON      CLOUDY    68  64  86 NW9       29.66R
$$
MIZ007>008-015-231700-
EASTERN UPPER MICHIGAN

CITY           SKY/WX    TMP DP  RH WIND       PRES   REMARKS
KINROSS        MOSUNNY   72  54  53 NW10      29.58S
MACKINAC ISLAN CLOUDY    62  62 100 W7        29.60R FOG
NEWBERRY       PTSUNNY   71  55  56 NW6       29.59R
S. S. MARIE    CLOUDY    71  54  54 W9        29.58R
$$
MIZ004>006-011>014-085-231700-
CENTRAL UPPER MICHIGAN

CITY           SKY/WX    TMP DP  RH WIND       PRES   REMARKS
MANISTIQUE     CLOUDY    71  59  67 S7        29.60R
ESCANABA       CLOUDY    71  62  73 S9        29.60F
MENOMINEE      PTSUNNY   74  53  48 VRB7      29.63F
SAWYER-GWINN   MOSUNNY   73  45  35 W13G23    29.60S
$$
MIZ001>003-009>011-084-231700-
WESTERN UPPER MICHIGAN

CITY           SKY/WX    TMP DP  RH WIND       PRES   REMARKS
IRON MOUNTAIN  SUNNY     74  47  38 W13G22    29.61S
HOUGHTON       SUNNY     64  47  53 W22G28    29.61R
COPPER HARBOR    N/A     61  50  67 N18       29.57R
IRONWOOD       MOSUNNY   65  49  56 W10       29.67S
$$

ABBREVIATIONS USED IN REMARKS
   TC - TEMPERATURE IN CELSIUS
  WCI - WIND CHILL INDEX
   HX - HEAT INDEX
  VSB - VISIBILITY





USA.gov is the U.S. government's official web portal to all federal, state and local government web resources and services.